Погода в Мокроусе

Россия / Саратовская область     51°14′14″N   47°30′53″E
темп.,
°C
ветер,
м/с
пор.,
м/с
влажн.,
%
обл.,
%
осадки,
мм/ч
давл.,
гПа
погр.,
м
27 февраля, сб
сб2701:00+3зюз716100100 0.2 1004423
04:00+2з71599100 0.5 1004479
07:00+1зюз51194100 0.0 1004329
10:000з6139279 0.0 1004465
13:00+1зюз61299100 0.0 1004517
16:00+1зюз71395100 0.1 1002588
19:000зюз71494100 0.1 1002652
22:00−5зсз81485100 0.7 1002682
28 февраля, вс
вс2801:00−10зсз7148945 0.0 1004580
04:00−12сз8139071 0.0 1006536
07:00−14сз7129198 0.0 1008426
10:00−14сз6108992 0.0 1010389
13:00−13сз699079 0.0 1012423
16:00−11сз598983 0.0 1013503
19:00−14сз469351 0.0 1014124
22:00−15сз469426 0.0 1017108
1 марта, пн
пн101:00−16ссз34930 0.0 101846
04:00−17ссз33930 0.0 102032
07:00−19ссз33930 0.0 102138
10:00−17ссз33920 0.0 1023132
13:00−15сз34900 0.0 1024261
16:00−14сз35918 0.0 1024305
19:00−17зсз23940 0.0 102520
22:00−17з23930 0.0 102520
2 марта, вт
вт201:00−16зюз34950 0.0 102439
04:00−16юз44940 0.0 102372
07:00−14ююз47960 0.0 1020129
10:00−9ююз7129448 0.0 1017302
13:00−4юз81495100 0.4 1014610
16:00−1юз81296100 1.4 1010732
19:00−2юз61297100 0.6 1007456
22:00−1зюз51098100 2.4 1005394
3 марта, ср
ср301:00−1зсз5998100 0.5 1004324
04:00−4сз6109599 0.6 1004262
07:00−7сз5109563 0.0 1005165
10:00−3сз6109459 0.1 1007429
13:00−2сз6109296 0.1 1008533
16:00−1сз6108995 0.1 1009732
19:00−3сз6129088 0.0 1010361
22:00−4сз6138989 0.0 1012383